Find Starlink 33635

NORAD ID: 63065 Int'l Des: 2025-035 Owner: SPXS Country: US Constellation: starlink operational
LEOCIRCULAR

リアルタイム位置

3D地球を読み込み中...

Starlink 33635について

説明を読み込み中...

次回通過

Passes for default location (London). Set your location on the main map for personalized predictions.

高度履歴

Loading altitude history...

軌道要素

1 63065U 25035P 26124.48768554 .00022063 00000-0 80873-3 0 9999
2 63065 42.9954 191.9342 0000736 279.5273 80.5495 15.27586239 68266
Epoch: May 4, 2026 • Age: 16 hours

現在のステータス

高度 482.5 km
速度 7.63 km/s
衛星直下点 4.05°N, 78.35°E
打ち上げ日 Feb 21, 2025
運用期間 1.1 years
タイプ internet

技術仕様

分類 Payload
質量 575.00 kg
乾燥質量 530.00 kg
総質量 575.00 kg
長さ 0.30 m
直径 4.10 m
スパン 29.00 m
形状 Box + pan
製造者 SPXS
バスタイプ Starlink V2MO
フェーズステータス In Orbit
所有者/国 SPXS/US

Most Searched